| time (UTC) | temp F | wind direction | speed MPH | gust MPH | rain 1hr in | rain 24hr in | rain mn in | humidity % | barometer mb |
| 20260904195002 | 80 | 183 | 0.0 | 2.0 | 0.00 | 0.00 | 0.00 | 45 | 1016.3 |
| 20260904193505 | 80 | 169 | 0.0 | 2.0 | 0.00 | 0.00 | 0.00 | 45 | 1016.3 |
| 20260904190507 | 81 | 0 | 0.0 | 4.0 | 0.00 | 0.00 | 0.00 | 43 | 1016.3 |
| 20260904185003 | 81 | 48 | 4.0 | 9.0 | 0.00 | 0.00 | 0.00 | 43 | 1016.1 |
| 20260904183505 | 82 | 45 | 1.0 | 9.0 | 0.00 | 0.00 | 0.00 | 43 | 1015.9 |
| 20260904182003 | 82 | 34 | 1.0 | 10.0 | 0.00 | 0.00 | 0.00 | 43 | 1015.8 |
| 20260904180505 | 82 | 0 | 1.0 | 10.0 | 0.00 | 0.00 | 0.00 | 43 | 1015.6 |
| 20260904175003 | 82 | 300 | 3.0 | 7.0 | 0.00 | 0.00 | 0.00 | 44 | 1015.4 |
| 20260904173502 | 83 | 0 | 4.0 | 10.0 | 0.00 | 0.00 | 0.00 | 44 | 1015.2 |
| 20260904170504 | 84 | 58 | 5.0 | 12.0 | 0.00 | 0.00 | 0.00 | 40 | 1014.7 |
| 20260904165002 | 84 | 16 | 4.0 | 13.0 | 0.00 | 0.00 | 0.00 | 40 | 1014.5 |
| 20260904163505 | 85 | 65 | 7.0 | 17.0 | 0.00 | 0.00 | 0.00 | 40 | 1014.3 |
| 20260904162001 | 85 | 341 | 6.0 | 18.0 | 0.00 | 0.00 | 0.00 | 40 | 1014.3 |
| 20260904160502 | 85 | 357 | 7.0 | 15.0 | 0.00 | 0.00 | 0.00 | 40 | 1014.3 |
| 20260904155004 | 86 | 14 | 5.0 | 15.0 | 0.00 | 0.00 | 0.00 | 39 | 1014.2 |
| 20260904153505 | 86 | 1 | 7.0 | 15.0 | 0.00 | 0.00 | 0.00 | 40 | 1014.1 |
| 20260904152001 | 87 | 6 | 4.0 | 12.0 | 0.00 | 0.00 | 0.00 | 40 | 1014.0 |
| 20260904150507 | 87 | 351 | 3.0 | 14.0 | 0.00 | 0.00 | 0.00 | 39 | 1014.0 |
| 20260904145001 | 88 | 39 | 4.0 | 16.0 | 0.00 | 0.00 | 0.00 | 39 | 1014.0 |
| 20260904142008 | 88 | 14 | 3.0 | 10.0 | 0.00 | 0.00 | 0.00 | 39 | 1014.0 |
| 20260904140502 | 88 | 17 | 4.0 | 13.0 | 0.00 | 0.00 | 0.00 | 39 | 1014.1 |
| 20260904133502 | 88 | 16 | 4.0 | 12.0 | 0.00 | 0.00 | 0.00 | 39 | 1014.0 |
| 20260904130502 | 88 | 340 | 8.0 | 15.0 | 0.00 | 0.00 | 0.00 | 38 | 1014.0 |
| 20260904125001 | 88 | 48 | 6.0 | 18.0 | 0.00 | 0.00 | 0.00 | 39 | 1014.0 |
| 20260904123502 | 89 | 175 | 2.0 | 12.0 | 0.00 | 0.00 | 0.00 | 39 | 1014.0 |
| 20260904122001 | 88 | 331 | 5.0 | 14.0 | 0.00 | 0.00 | 0.00 | 38 | 1014.2 |
| 20260904120503 | 88 | 86 | 2.0 | 13.0 | 0.00 | 0.00 | 0.00 | 38 | 1014.2 |
| 20260904115002 | 88 | 0 | 5.0 | 17.0 | 0.00 | 0.00 | 0.00 | 37 | 1014.5 |
| 20260904113510 | 88 | 0 | 8.0 | 16.0 | 0.00 | 0.00 | 0.00 | 38 | 1014.4 |
| 20260904110504 | 88 | 351 | 5.0 | 15.0 | 0.00 | 0.00 | 0.00 | 39 | 1014.6 |
| 20260904105002 | 88 | 313 | 7.0 | 16.0 | 0.00 | 0.00 | 0.00 | 40 | 1014.5 |
| 20260904102009 | 87 | 0 | 8.0 | 16.0 | 0.00 | 0.00 | 0.00 | 42 | 1014.6 |
| 20260904100504 | 87 | 1 | 9.0 | 17.0 | 0.00 | 0.00 | 0.00 | 42 | 1014.7 |
| 20260904093506 | 88 | 21 | 6.0 | 18.0 | 0.00 | 0.00 | 0.00 | 45 | 1014.7 |
| 20260904090503 | 86 | 13 | 6.0 | 15.0 | 0.00 | 0.00 | 0.00 | 48 | 1014.6 |
| 20260904085000 | 86 | 0 | 6.0 | 17.0 | 0.00 | 0.00 | 0.00 | 49 | 1014.7 |
| 20260904083507 | 86 | 344 | 12.0 | 20.0 | 0.00 | 0.00 | 0.00 | 50 | 1014.7 |
| 20260904082001 | 85 | 30 | 3.0 | 16.0 | 0.00 | 0.00 | 0.00 | 50 | 1014.7 |
| 20260904080504 | 84 | 0 | 8.0 | 16.0 | 0.00 | 0.00 | 0.00 | 51 | 1014.6 |
| 20260904075000 | 84 | 344 | 2.0 | 19.0 | 0.00 | 0.00 | 0.00 | 51 | 1014.7 |
| 20260904073502 | 84 | 336 | 5.0 | 15.0 | 0.00 | 0.00 | 0.00 | 50 | 1014.6 |
| 20260904070503 | 83 | 357 | 5.0 | 12.0 | 0.00 | 0.00 | 0.00 | 50 | 1014.3 |
| 20260904065000 | 83 | 1 | 3.0 | 14.0 | 0.00 | 0.00 | 0.00 | 51 | 1014.3 |
| 20260904063505 | 82 | 37 | 2.0 | 14.0 | 0.00 | 0.00 | 0.00 | 53 | 1014.2 |
| 20260904062001 | 81 | 326 | 3.0 | 9.0 | 0.00 | 0.00 | 0.00 | 54 | 1014.0 |
| 20260904060503 | 81 | 18 | 2.0 | 5.0 | 0.00 | 0.00 | 0.00 | 54 | 1014.2 |
| 20260904055000 | 80 | 351 | 2.0 | 9.0 | 0.00 | 0.00 | 0.00 | 54 | 1014.3 |
| 20260904053502 | 80 | 330 | 1.0 | 5.0 | 0.00 | 0.00 | 0.00 | 56 | 1014.1 |
| 20260904052000 | 78 | 344 | 0.0 | 2.0 | 0.00 | 0.00 | 0.00 | 57 | 1013.9 |
| 20260904050503 | 77 | 18 | 0.0 | 0.0 | 0.00 | 0.00 | 0.00 | 59 | 1014.0 |
| 20260904045002 | 77 | 147 | 0.0 | 0.0 | 0.00 | 0.00 | 0.00 | 59 | 1014.0 |
| 20260904043504 | 77 | 59 | 0.0 | 0.0 | 0.00 | 0.00 | 0.00 | 59 | 1014.0 |
| 20260904042000 | 77 | 0 | 0.0 | 2.0 | 0.00 | 0.00 | 0.00 | 58 | 1014.0 |
| 20260904040502 | 77 | 324 | 0.0 | 3.0 | 0.00 | 0.00 | 0.00 | 55 | 1013.8 |
| 20260904035001 | 77 | 0 | 0.0 | 3.0 | 0.00 | 0.00 | 0.00 | 55 | 1013.8 |
| 20260904032001 | 77 | 10 | 0.0 | 0.0 | 0.00 | 0.00 | 0.00 | 54 | 1013.7 |
| 20260904025001 | 77 | 353 | 0.0 | 2.0 | 0.00 | 0.00 | 0.00 | 54 | 1013.6 |
| 20260904023505 | 77 | 0 | 0.0 | 1.0 | 0.00 | 0.00 | 0.00 | 52 | 1013.6 |
| 20260904022002 | 78 | 0 | 0.0 | 1.0 | 0.00 | 0.00 | 0.00 | 51 | 1013.6 |
| 20260904020503 | 78 | 321 | 0.0 | 1.0 | 0.00 | 0.00 | 0.00 | 50 | 1013.6 |
| 20260904013503 | 79 | 59 | 0.0 | 5.0 | 0.00 | 0.00 | 0.00 | 48 | 1013.6 |
| 20260904012003 | 79 | 0 | 2.0 | 6.0 | 0.00 | 0.00 | 0.00 | 48 | 1013.6 |
| 20260904005003 | 78 | 42 | 2.0 | 4.0 | 0.00 | 0.00 | 0.00 | 50 | 1013.3 |
| 20260904003503 | 79 | 21 | 0.0 | 4.0 | 0.00 | 0.00 | 0.00 | 48 | 1013.3 |
| 20260904000503 | 79 | 20 | 1.0 | 5.0 | 0.00 | 0.00 | 0.00 | 46 | 1013.5 |
| 20260903233504 | 80 | 340 | 1.0 | 3.0 | 0.00 | 0.00 | 0.00 | 44 | 1013.4 |
| 20260903232001 | 80 | 355 | 0.0 | 3.0 | 0.00 | 0.00 | 0.00 | 43 | 1013.4 |
| 20260903230506 | 80 | 104 | 0.0 | 3.0 | 0.00 | 0.00 | 0.00 | 42 | 1013.5 |
| 20260903225001 | 80 | 107 | 0.0 | 4.0 | 0.00 | 0.00 | 0.00 | 41 | 1013.5 |
| 20260903223505 | 81 | 7 | 1.0 | 4.0 | 0.00 | 0.00 | 0.00 | 41 | 1013.6 |
| 20260903222003 | 81 | 42 | 0.0 | 3.0 | 0.00 | 0.00 | 0.00 | 40 | 1013.6 |
| 20260903220503 | 81 | 38 | 0.0 | 2.0 | 0.00 | 0.00 | 0.00 | 40 | 1013.5 |
| 20260903213509 | 81 | 51 | 1.0 | 3.0 | 0.00 | 0.00 | 0.00 | 39 | 1013.5 |
| 20260903210507 | 81 | 3 | 0.0 | 3.0 | 0.00 | 0.00 | 0.00 | 38 | 1013.4 |
| 20260903205007 | 82 | 138 | 0.0 | 2.0 | 0.00 | 0.00 | 0.00 | 38 | 1013.5 |
| 20260903203502 | 82 | 48 | 1.0 | 4.0 | 0.00 | 0.00 | 0.00 | 37 | 1013.4 |